CommID,deviceName,DataDateTime,GPSLatitude,GPSLongitude,Submerged,gpsQuality,BatteryVoltage,SST,IridiumLatitude,IridiumLongitude,IridiumRadiusKm,orgName,bPressTend,windDir,windSpeed,bPress,SurfaceSalinity,temperature7m,salinity7m,temperature15m,salinity15m
300234011887330,SFOS-MS-0020,10/29/2012 10:30:05 PM,70.636639,-160.021049,False,3,7.5,-0.05,70.386440,-160.159720,5,School of Fisheries and Ocean Sciences,,,,,,,,,
300234011887330,SFOS-MS-0020,10/28/2012 1:00:05 AM,70.607667,-160.111469,False,3,9.5,-0.05,70.353340,-160.120670,2,School of Fisheries and Ocean Sciences,,,,,,,,,
300234011887330,SFOS-MS-0020,10/15/2012 9:30:10 AM,70.552969,-160.236697,True,3,11.5,45.80,70.341090,-160.203350,4,School of Fisheries and Ocean Sciences,,,,,,,,,
300234011887330,SFOS-MS-0020,10/15/2012 9:00:08 AM,70.552994,-160.236833,True,3,11.5,-3.40,70.315160,-160.164340,6,School of Fisheries and Ocean Sciences,,,,,,,,,
300234011887330,SFOS-MS-0020,10/15/2012 8:30:08 AM,70.552980,-160.236885,True,3,11.5,-3.35,70.325580,-159.477830,100,School of Fisheries and Ocean Sciences,,,,,,,,,
300234011887330,SFOS-MS-0020,10/15/2012 8:00:08 AM,70.552994,-160.236899,True,3,11.5,-3.80,70.308300,-160.103700,11,School of Fisheries and Ocean Sciences,,,,,,,,,
300234011887330,SFOS-MS-0020,10/15/2012 7:30:08 AM,70.552992,-160.236872,True,3,11.5,-3.75,70.353340,-160.120670,7,School of Fisheries and Ocean Sciences,,,,,,,,,
300234011887330,SFOS-MS-0020,10/15/2012 7:00:08 AM,70.552983,-160.236858,True,3,11.5,-3.70,70.315160,-160.164340,3,School of Fisheries and Ocean Sciences,,,,,,,,,
300234011887330,SFOS-MS-0020,10/15/2012 6:30:08 AM,70.552983,-160.236863,True,3,11.5,-4.00,70.315160,-160.164340,7,School of Fisheries and Ocean Sciences,,,,,,,,,
300234011887330,SFOS-MS-0020,10/15/2012 6:00:38 AM,70.552994,-160.236866,True,3,11.5,-4.35,70.315160,-160.164340,4,School of Fisheries and Ocean Sciences,,,,,,,,,
300234011887330,SFOS-MS-0020,10/15/2012 5:30:09 AM,70.552992,-160.236849,True,3,11.5,44.75,70.327370,-160.818100,1,School of Fisheries and Ocean Sciences,,,,,,,,,
300234011887330,SFOS-MS-0020,10/15/2012 5:00:09 AM,70.553128,-160.236941,True,3,11.5,45.00,70.308300,-160.103700,2,School of Fisheries and Ocean Sciences,,,,,,,,,
300234011887330,SFOS-MS-0020,10/15/2012 4:30:09 AM,70.552975,-160.236816,False,3,11.5,45.15,70.418670,-162.500100,159,School of Fisheries and Ocean Sciences,,,,,,,,,
300234011887330,SFOS-MS-0020,10/15/2012 4:00:08 AM,70.552958,-160.236869,False,3,11.5,-4.90,70.327370,-160.818100,4,School of Fisheries and Ocean Sciences,,,,,,,,,
300234011887330,SFOS-MS-0020,10/15/2012 3:30:08 AM,70.552958,-160.236877,False,3,11.5,-4.25,70.327370,-160.818100,3,School of Fisheries and Ocean Sciences,,,,,,,,,
300234011887330,SFOS-MS-0020,10/15/2012 3:00:07 AM,70.552969,-160.236885,False,3,11.5,-4.25,70.327370,-160.818100,3,School of Fisheries and Ocean Sciences,,,,,,,,,
300234011887330,SFOS-MS-0020,10/15/2012 2:30:07 AM,70.552969,-160.236872,False,3,11.5,-3.35,70.430590,-163.245300,126,School of Fisheries and Ocean Sciences,,,,,,,,,
300234011887330,SFOS-MS-0020,10/15/2012 2:00:38 AM,70.552967,-160.236885,True,3,11.5,-3.25,70.321990,-160.225060,2,School of Fisheries and Ocean Sciences,,,,,,,,,
300234011887330,SFOS-MS-0020,10/15/2012 1:30:13 AM,70.552997,-160.236938,False,3,11.5,-3.30,70.327370,-160.818100,3,School of Fisheries and Ocean Sciences,,,,,,,,,
300234011887330,SFOS-MS-0020,10/15/2012 1:00:07 AM,70.552967,-160.236835,False,3,11.5,-2.85,70.315160,-160.164340,2,School of Fisheries and Ocean Sciences,,,,,,,,,
300234011887330,SFOS-MS-0020,10/15/2012 12:30:08 AM,70.552975,-160.236938,False,3,11.5,-3.50,70.346450,-160.598400,6,School of Fisheries and Ocean Sciences,,,,,,,,,
300234011887330,SFOS-MS-0020,10/15/2012 12:00:08 AM,70.552975,-160.236966,False,3,11.5,-3.55,70.240760,-156.497680,144,School of Fisheries and Ocean Sciences,,,,,,,,,
300234011887330,SFOS-MS-0020,10/14/2012 11:30:08 PM,70.552997,-160.236988,False,3,11.5,-3.00,70.327370,-160.818100,2,School of Fisheries and Ocean Sciences,,,,,,,,,
300234011887330,SFOS-MS-0020,10/14/2012 11:00:37 PM,70.553000,-160.236949,False,3,11.5,-2.70,70.327370,-160.818100,4,School of Fisheries and Ocean Sciences,,,,,,,,,
300234011887330,SFOS-MS-0020,10/14/2012 10:30:09 PM,70.552942,-160.236952,True,3,11.5,-2.50,70.327370,-160.818100,3,School of Fisheries and Ocean Sciences,,,,,,,,,
300234011887330,SFOS-MS-0020,10/14/2012 10:00:07 PM,70.552989,-160.237024,True,3,11.5,-2.55,70.168560,-169.518100,339,School of Fisheries and Ocean Sciences,,,,,,,,,
300234011887330,SFOS-MS-0020,10/14/2012 9:30:08 PM,70.552986,-160.236972,False,3,11.5,-2.60,70.353340,-160.120670,3,School of Fisheries and Ocean Sciences,,,,,,,,,
300234011887330,SFOS-MS-0020,10/14/2012 9:00:08 PM,70.552983,-160.236947,True,3,11.5,-2.50,70.327370,-160.818100,2,School of Fisheries and Ocean Sciences,,,,,,,,,
300234011887330,SFOS-MS-0020,10/14/2012 8:30:07 PM,70.552942,-160.236969,False,3,11.5,-2.45,70.341090,-160.203350,3,School of Fisheries and Ocean Sciences,,,,,,,,,
300234011887330,SFOS-MS-0020,10/14/2012 8:00:37 PM,70.552975,-160.236922,True,3,11.5,-2.30,70.327370,-160.818100,2,School of Fisheries and Ocean Sciences,,,,,,,,,
300234011887330,SFOS-MS-0020,10/14/2012 7:30:07 PM,70.552994,-160.236844,False,3,11.5,-2.20,70.315160,-160.164340,4,School of Fisheries and Ocean Sciences,,,,,,,,,
300234011887330,SFOS-MS-0020,10/14/2012 7:00:07 PM,70.552989,-160.236963,False,3,11.5,-2.25,70.353340,-160.120670,5,School of Fisheries and Ocean Sciences,,,,,,,,,
300234011887330,SFOS-MS-0020,10/14/2012 6:30:07 PM,70.552975,-160.236955,False,3,11.5,-1.90,70.341090,-160.203350,3,School of Fisheries and Ocean Sciences,,,,,,,,,
300234011887330,SFOS-MS-0020,10/14/2012 6:00:08 PM,70.552980,-160.236927,True,3,11.5,-1.90,70.341090,-160.203350,4,School of Fisheries and Ocean Sciences,,,,,,,,,
300234011887330,SFOS-MS-0020,10/14/2012 5:30:37 PM,70.553061,-160.237066,True,3,11.5,-2.00,70.171740,-164.374240,188,School of Fisheries and Ocean Sciences,,,,,,,,,
300234011887330,SFOS-MS-0020,10/14/2012 5:00:10 PM,70.553044,-160.237066,True,3,11.5,-2.10,70.315160,-160.164340,2,School of Fisheries and Ocean Sciences,,,,,,,,,
300234011887330,SFOS-MS-0020,10/14/2012 4:30:08 PM,70.553069,-160.237102,False,3,11.5,-0.95,70.321990,-160.225060,2,School of Fisheries and Ocean Sciences,,,,,,,,,
300234011887330,SFOS-MS-0020,10/14/2012 4:00:08 PM,70.553075,-160.237063,False,3,11.5,-1.75,70.346450,-160.598400,3,School of Fisheries and Ocean Sciences,,,,,,,,,
300234011887330,SFOS-MS-0020,10/14/2012 3:30:08 PM,70.553053,-160.237074,False,3,11.5,-2.05,70.315160,-160.164340,3,School of Fisheries and Ocean Sciences,,,,,,,,,
300234011887330,SFOS-MS-0020,10/14/2012 3:00:08 PM,70.553039,-160.237138,True,3,11.5,-1.90,70.341090,-160.203350,3,School of Fisheries and Ocean Sciences,,,,,,,,,
300234011887330,SFOS-MS-0020,10/14/2012 2:30:07 PM,70.553044,-160.237116,False,3,11.5,-2.15,70.315160,-160.164340,2,School of Fisheries and Ocean Sciences,,,,,,,,,
300234011887330,SFOS-MS-0020,10/14/2012 2:00:37 PM,70.553039,-160.237144,True,3,11.5,-1.90,70.341090,-160.203350,2,School of Fisheries and Ocean Sciences,,,,,,,,,
300234011887330,SFOS-MS-0020,10/14/2012 1:30:07 PM,70.553042,-160.237033,False,3,11.5,-1.40,70.315160,-160.164340,2,School of Fisheries and Ocean Sciences,,,,,,,,,
300234011887330,SFOS-MS-0020,10/14/2012 1:00:06 PM,70.553055,-160.237069,False,3,11.5,-1.45,70.327370,-160.818100,2,School of Fisheries and Ocean Sciences,,,,,,,,,
300234011887330,SFOS-MS-0020,10/14/2012 12:30:07 PM,70.553064,-160.237133,True,3,11.5,-2.45,70.327370,-160.818100,4,School of Fisheries and Ocean Sciences,,,,,,,,,
300234011887330,SFOS-MS-0020,10/14/2012 12:00:06 PM,70.553055,-160.237063,False,3,11.5,-2.95,70.327370,-160.818100,3,School of Fisheries and Ocean Sciences,,,,,,,,,
300234011887330,SFOS-MS-0020,10/14/2012 11:30:37 AM,70.553050,-160.237088,False,3,11.5,-4.10,70.327370,-160.818100,5,School of Fisheries and Ocean Sciences,,,,,,,,,
300234011887330,SFOS-MS-0020,10/14/2012 11:00:07 AM,70.553055,-160.237174,False,3,11.5,46.05,70.430590,-163.245300,128,School of Fisheries and Ocean Sciences,,,,,,,,,
300234011887330,SFOS-MS-0020,10/14/2012 10:30:08 AM,70.553044,-160.237080,False,3,11.5,-4.20,70.327370,-160.818100,2,School of Fisheries and Ocean Sciences,,,,,,,,,
300234011887330,SFOS-MS-0020,10/14/2012 10:00:08 AM,70.553044,-160.237044,False,3,11.5,-4.10,70.315160,-160.164340,7,School of Fisheries and Ocean Sciences,,,,,,,,,
300234011887330,SFOS-MS-0020,10/14/2012 9:30:08 AM,70.553044,-160.237085,False,3,11.5,-4.75,70.321990,-160.225060,18,School of Fisheries and Ocean Sciences,,,,,,,,,
300234011887330,SFOS-MS-0020,10/14/2012 9:00:08 AM,70.553047,-160.237105,False,3,11.5,-4.65,70.500720,-164.113730,165,School of Fisheries and Ocean Sciences,,,,,,,,,
300234011887330,SFOS-MS-0020,10/14/2012 8:30:08 AM,70.553044,-160.237047,False,3,11.5,46.15,70.248720,-156.556650,143,School of Fisheries and Ocean Sciences,,,,,,,,,
300234011887330,SFOS-MS-0020,10/14/2012 8:00:05 AM,70.553061,-160.237074,False,3,7.5,-0.05,70.308300,-160.103700,3,School of Fisheries and Ocean Sciences,,,,,,,,,
300234011887330,SFOS-MS-0020,10/8/2012 3:00:08 AM,70.553067,-160.237066,True,3,11.5,1.60,70.341090,-160.203350,2,School of Fisheries and Ocean Sciences,,,,,,,,,
300234011887330,SFOS-MS-0020,10/8/2012 2:30:08 AM,70.553069,-160.237072,True,3,11.5,1.55,70.334250,-160.142540,4,School of Fisheries and Ocean Sciences,,,,,,,,,
300234011887330,SFOS-MS-0020,10/8/2012 2:00:08 AM,70.553072,-160.237069,True,3,11.5,1.70,70.308300,-160.103700,4,School of Fisheries and Ocean Sciences,,,,,,,,,
300234011887330,SFOS-MS-0020,10/8/2012 1:30:08 AM,70.553094,-160.237102,True,3,11.5,1.95,70.308300,-160.103700,4,School of Fisheries and Ocean Sciences,,,,,,,,,
300234011887330,SFOS-MS-0020,10/8/2012 1:00:07 AM,70.553086,-160.237010,True,3,11.5,2.25,70.327370,-160.818100,3,School of Fisheries and Ocean Sciences,,,,,,,,,
300234011887330,SFOS-MS-0020,10/8/2012 12:30:07 AM,70.553078,-160.237052,True,3,11.5,2.45,70.275690,-155.498510,181,School of Fisheries and Ocean Sciences,,,,,,,,,
300234011887330,SFOS-MS-0020,10/8/2012 12:00:37 AM,70.553097,-160.237088,True,3,11.5,2.60,70.315160,-160.164340,6,School of Fisheries and Ocean Sciences,,,,,,,,,
300234011887330,SFOS-MS-0020,10/7/2012 11:30:08 PM,70.553114,-160.237144,True,3,11.5,3.60,70.346450,-160.598400,2,School of Fisheries and Ocean Sciences,,,,,,,,,
300234011887330,SFOS-MS-0020,10/7/2012 11:00:08 PM,70.553114,-160.237080,True,3,11.5,5.30,70.315160,-160.164340,5,School of Fisheries and Ocean Sciences,,,,,,,,,
300234011887330,SFOS-MS-0020,10/7/2012 10:30:08 PM,70.553097,-160.237069,True,3,11.5,3.35,70.315160,-160.164340,15,School of Fisheries and Ocean Sciences,,,,,,,,,
300234011887330,SFOS-MS-0020,10/7/2012 10:00:08 PM,70.553086,-160.237063,True,3,11.5,3.50,70.419770,-157.598360,121,School of Fisheries and Ocean Sciences,,,,,,,,,
300234011887330,SFOS-MS-0020,10/7/2012 9:30:08 PM,70.553100,-160.237058,True,3,11.5,3.40,70.315160,-160.164340,6,School of Fisheries and Ocean Sciences,,,,,,,,,
300234011887330,SFOS-MS-0020,10/7/2012 9:00:38 PM,70.553114,-160.237085,False,3,11.5,2.20,70.353340,-160.120670,7,School of Fisheries and Ocean Sciences,,,,,,,,,
300234011887330,SFOS-MS-0020,10/7/2012 8:30:07 PM,70.553078,-160.237141,False,3,11.5,1.55,70.315160,-160.164340,4,School of Fisheries and Ocean Sciences,,,,,,,,,
300234011887330,SFOS-MS-0020,10/7/2012 8:00:07 PM,70.553100,-160.237105,False,3,11.5,1.00,70.334250,-160.142540,4,School of Fisheries and Ocean Sciences,,,,,,,,,
300234011887330,SFOS-MS-0020,10/7/2012 7:30:06 PM,70.553105,-160.237113,False,3,11.5,0.40,70.320470,-160.211500,28,School of Fisheries and Ocean Sciences,,,,,,,,,
300234011887330,SFOS-MS-0020,10/7/2012 7:00:07 PM,70.553086,-160.237080,False,3,11.5,0.30,70.315160,-160.164340,2,School of Fisheries and Ocean Sciences,,,,,,,,,
300234011887330,SFOS-MS-0020,10/7/2012 6:30:08 PM,70.553075,-160.237066,False,3,11.5,0.25,70.315160,-160.164340,1,School of Fisheries and Ocean Sciences,,,,,,,,,
300234011887330,SFOS-MS-0020,10/7/2012 6:00:38 PM,70.553075,-160.237052,False,3,11.5,0.20,70.315160,-160.164340,3,School of Fisheries and Ocean Sciences,,,,,,,,,
300234011887330,SFOS-MS-0020,10/7/2012 5:30:08 PM,70.553072,-160.237049,False,3,11.5,0.15,70.315160,-160.164340,3,School of Fisheries and Ocean Sciences,,,,,,,,,
300234011887330,SFOS-MS-0020,10/7/2012 5:00:08 PM,70.553089,-160.237088,False,3,11.5,0.25,70.308300,-160.103700,9,School of Fisheries and Ocean Sciences,,,,,,,,,
300234011887330,SFOS-MS-0020,10/7/2012 4:30:08 PM,70.553083,-160.237077,False,3,11.5,0.30,70.327370,-160.818100,4,School of Fisheries and Ocean Sciences,,,,,,,,,
300234011887330,SFOS-MS-0020,10/7/2012 4:00:08 PM,70.553092,-160.237066,False,3,11.5,0.50,70.327370,-160.818100,2,School of Fisheries and Ocean Sciences,,,,,,,,,
300234011887330,SFOS-MS-0020,10/7/2012 3:30:07 PM,70.553100,-160.237072,False,3,11.5,0.85,70.315160,-160.164340,2,School of Fisheries and Ocean Sciences,,,,,,,,,
300234011887330,SFOS-MS-0020,10/7/2012 3:00:37 PM,70.553086,-160.237091,False,3,11.5,0.55,70.315160,-160.164340,3,School of Fisheries and Ocean Sciences,,,,,,,,,
300234011887330,SFOS-MS-0020,10/7/2012 2:30:07 PM,70.553094,-160.237099,False,3,11.5,-0.05,70.353340,-160.120670,4,School of Fisheries and Ocean Sciences,,,,,,,,,
300234011887330,SFOS-MS-0020,10/7/2012 2:00:07 PM,70.553072,-160.237047,False,3,11.5,-0.20,70.327370,-160.818100,3,School of Fisheries and Ocean Sciences,,,,,,,,,
300234011887330,SFOS-MS-0020,10/7/2012 1:30:08 PM,70.553069,-160.237055,False,3,11.5,0.15,70.334250,-160.142540,3,School of Fisheries and Ocean Sciences,,,,,,,,,
300234011887330,SFOS-MS-0020,10/7/2012 1:00:08 PM,70.553064,-160.237035,False,3,11.5,0.15,70.315160,-160.164340,4,School of Fisheries and Ocean Sciences,,,,,,,,,
300234011887330,SFOS-MS-0020,10/7/2012 12:30:08 PM,70.553089,-160.237047,False,3,11.5,0.40,70.315160,-160.164340,4,School of Fisheries and Ocean Sciences,,,,,,,,,
300234011887330,SFOS-MS-0020,10/7/2012 12:00:38 PM,70.553089,-160.237052,False,3,11.5,0.45,70.315160,-160.164340,3,School of Fisheries and Ocean Sciences,,,,,,,,,
300234011887330,SFOS-MS-0020,10/7/2012 11:30:08 AM,70.553100,-160.237119,False,3,11.5,0.30,70.335540,-160.346720,100,School of Fisheries and Ocean Sciences,,,,,,,,,
300234011887330,SFOS-MS-0020,10/7/2012 11:00:08 AM,70.553103,-160.237085,False,3,11.5,0.15,70.334250,-160.142540,4,School of Fisheries and Ocean Sciences,,,,,,,,,
300234011887330,SFOS-MS-0020,10/7/2012 10:30:08 AM,70.553100,-160.237066,False,3,11.5,-0.60,70.341090,-160.203350,2,School of Fisheries and Ocean Sciences,,,,,,,,,
300234011887330,SFOS-MS-0020,10/7/2012 10:00:07 AM,70.553103,-160.237055,False,3,11.5,-1.50,70.308300,-160.103700,4,School of Fisheries and Ocean Sciences,,,,,,,,,
300234011887330,SFOS-MS-0020,10/7/2012 9:30:06 AM,70.553100,-160.237052,False,3,11.5,-1.70,70.413770,-162.232450,107,School of Fisheries and Ocean Sciences,,,,,,,,,
300234011887330,SFOS-MS-0020,10/7/2012 9:00:37 AM,70.553075,-160.237035,False,3,11.5,-1.50,70.315160,-160.164340,2,School of Fisheries and Ocean Sciences,,,,,,,,,
300234011887330,SFOS-MS-0020,10/7/2012 8:30:07 AM,70.553100,-160.237077,False,3,11.5,-1.45,70.327370,-160.818100,2,School of Fisheries and Ocean Sciences,,,,,,,,,
300234011887330,SFOS-MS-0020,10/7/2012 8:00:08 AM,70.553103,-160.237066,False,3,11.5,-1.15,70.334250,-160.142540,2,School of Fisheries and Ocean Sciences,,,,,,,,,
300234011887330,SFOS-MS-0020,10/7/2012 7:30:08 AM,70.553103,-160.237033,False,3,11.5,-1.05,70.327370,-160.818100,3,School of Fisheries and Ocean Sciences,,,,,,,,,
300234011887330,SFOS-MS-0020,10/7/2012 7:00:08 AM,70.553092,-160.237022,False,3,11.5,-0.75,70.204710,-155.518700,178,School of Fisheries and Ocean Sciences,,,,,,,,,
300234011887330,SFOS-MS-0020,10/7/2012 6:30:09 AM,70.553092,-160.237022,False,3,11.5,-0.80,70.341090,-160.203350,4,School of Fisheries and Ocean Sciences,,,,,,,,,
300234011887330,SFOS-MS-0020,10/7/2012 6:00:37 AM,70.553083,-160.237010,False,3,11.5,-0.30,70.341090,-160.203350,3,School of Fisheries and Ocean Sciences,,,,,,,,,
300234011887330,SFOS-MS-0020,10/7/2012 5:30:11 AM,70.553100,-160.237038,False,3,11.5,0.05,70.308300,-160.103700,2,School of Fisheries and Ocean Sciences,,,,,,,,,
300234011887330,SFOS-MS-0020,10/7/2012 5:00:08 AM,70.553103,-160.237047,False,3,11.5,0.60,70.315160,-160.164340,3,School of Fisheries and Ocean Sciences,,,,,,,,,
300234011887330,SFOS-MS-0020,10/7/2012 4:30:08 AM,70.553103,-160.237033,False,3,11.5,0.85,70.327370,-160.818100,2,School of Fisheries and Ocean Sciences,,,,,,,,,
300234011887330,SFOS-MS-0020,10/7/2012 4:00:07 AM,70.553092,-160.237038,False,3,11.5,1.05,70.327370,-160.818100,3,School of Fisheries and Ocean Sciences,,,,,,,,,
300234011887330,SFOS-MS-0020,10/7/2012 3:30:35 AM,70.553086,-160.237055,False,3,11.5,2.15,70.321990,-160.225060,3,School of Fisheries and Ocean Sciences,,,,,,,,,
300234011887330,SFOS-MS-0020,10/7/2012 3:00:07 AM,70.553050,-160.237069,False,3,11.5,2.65,70.316280,-159.213550,75,School of Fisheries and Ocean Sciences,,,,,,,,,
300234011887330,SFOS-MS-0020,10/7/2012 2:30:07 AM,70.553069,-160.237080,False,3,11.5,2.85,70.346450,-160.598400,17,School of Fisheries and Ocean Sciences,,,,,,,,,
300234011887330,SFOS-MS-0020,10/7/2012 2:00:08 AM,70.553078,-160.237060,False,3,11.5,3.00,70.327370,-160.818100,3,School of Fisheries and Ocean Sciences,,,,,,,,,
300234011887330,SFOS-MS-0020,10/7/2012 1:30:08 AM,70.553080,-160.237069,False,3,11.5,3.00,70.308300,-160.103700,3,School of Fisheries and Ocean Sciences,,,,,,,,,
300234011887330,SFOS-MS-0020,10/7/2012 1:00:08 AM,70.553080,-160.237063,False,3,11.5,3.15,70.315160,-160.164340,3,School of Fisheries and Ocean Sciences,,,,,,,,,
300234011887330,SFOS-MS-0020,10/7/2012 12:30:08 AM,70.553075,-160.237052,False,3,11.5,3.30,70.327370,-160.818100,2,School of Fisheries and Ocean Sciences,,,,,,,,,
300234011887330,SFOS-MS-0020,10/7/2012 12:00:38 AM,70.553094,-160.237077,False,3,11.5,3.45,70.327370,-160.818100,2,School of Fisheries and Ocean Sciences,,,,,,,,,
300234011887330,SFOS-MS-0020,10/6/2012 11:30:07 PM,70.553075,-160.237091,False,3,11.5,3.60,70.327370,-160.818100,3,School of Fisheries and Ocean Sciences,,,,,,,,,
300234011887330,SFOS-MS-0020,10/6/2012 11:00:07 PM,70.553083,-160.237038,False,3,11.5,3.85,70.353340,-160.120670,4,School of Fisheries and Ocean Sciences,,,,,,,,,
300234011887330,SFOS-MS-0020,10/6/2012 10:30:08 PM,70.553089,-160.237072,False,3,11.5,3.75,70.203340,-165.144100,201,School of Fisheries and Ocean Sciences,,,,,,,,,
300234011887330,SFOS-MS-0020,10/6/2012 10:00:08 PM,70.553083,-160.237047,False,3,11.5,3.45,70.327370,-160.818100,3,School of Fisheries and Ocean Sciences,,,,,,,,,
300234011887330,SFOS-MS-0020,10/6/2012 9:30:08 PM,70.553103,-160.237027,False,3,11.5,3.35,70.327370,-160.818100,2,School of Fisheries and Ocean Sciences,,,,,,,,,
300234011887330,SFOS-MS-0020,10/6/2012 9:00:37 PM,70.553108,-160.237052,False,3,11.5,3.50,70.327370,-160.818100,4,School of Fisheries and Ocean Sciences,,,,,,,,,
300234011887330,SFOS-MS-0020,10/6/2012 8:30:07 PM,70.553092,-160.237099,False,3,11.5,3.15,70.260590,-165.500370,226,School of Fisheries and Ocean Sciences,,,,,,,,,
300234011887330,SFOS-MS-0020,10/6/2012 8:00:07 PM,70.553105,-160.237099,False,3,11.5,4.10,70.354240,-159.167930,80,School of Fisheries and Ocean Sciences,,,,,,,,,
300234011887330,SFOS-MS-0020,10/6/2012 7:30:07 PM,70.553100,-160.237074,False,3,11.5,2.95,70.353340,-160.120670,5,School of Fisheries and Ocean Sciences,,,,,,,,,
300234011887330,SFOS-MS-0020,10/6/2012 7:00:07 PM,70.553094,-160.237066,False,3,11.5,1.50,70.321990,-160.225060,3,School of Fisheries and Ocean Sciences,,,,,,,,,
300234011887330,SFOS-MS-0020,10/6/2012 6:30:07 PM,70.553078,-160.237055,False,3,11.5,0.90,70.346450,-160.598400,4,School of Fisheries and Ocean Sciences,,,,,,,,,
300234011887330,SFOS-MS-0020,10/6/2012 6:00:37 PM,70.553089,-160.237027,False,3,11.5,0.30,70.315160,-160.164340,3,School of Fisheries and Ocean Sciences,,,,,,,,,
300234011887330,SFOS-MS-0020,10/6/2012 5:30:08 PM,70.553083,-160.237060,False,3,11.5,0.40,70.341090,-160.203350,5,School of Fisheries and Ocean Sciences,,,,,,,,,
300234011887330,SFOS-MS-0020,10/6/2012 5:00:09 PM,70.553092,-160.237047,False,3,11.5,0.85,70.315160,-160.164340,2,School of Fisheries and Ocean Sciences,,,,,,,,,
300234011887330,SFOS-MS-0020,10/6/2012 4:30:08 PM,70.553097,-160.237083,False,3,11.5,0.85,70.346450,-160.598400,4,School of Fisheries and Ocean Sciences,,,,,,,,,
300234011887330,SFOS-MS-0020,10/6/2012 4:00:08 PM,70.553103,-160.237060,False,3,11.5,0.70,70.271160,-162.226620,104,School of Fisheries and Ocean Sciences,,,,,,,,,
300234011887330,SFOS-MS-0020,10/6/2012 3:30:08 PM,70.553083,-160.237069,False,3,11.5,1.15,70.327370,-160.818100,3,School of Fisheries and Ocean Sciences,,,,,,,,,
300234011887330,SFOS-MS-0020,10/6/2012 3:00:37 PM,70.553086,-160.237074,False,3,11.5,1.10,70.327370,-160.818100,2,School of Fisheries and Ocean Sciences,,,,,,,,,
300234011887330,SFOS-MS-0020,10/6/2012 2:30:07 PM,70.553072,-160.237066,False,3,11.5,0.75,70.315160,-160.164340,4,School of Fisheries and Ocean Sciences,,,,,,,,,
300234011887330,SFOS-MS-0020,10/6/2012 2:00:07 PM,70.553072,-160.237002,False,3,11.5,0.15,70.308300,-160.103700,2,School of Fisheries and Ocean Sciences,,,,,,,,,
300234011887330,SFOS-MS-0020,10/6/2012 1:30:07 PM,70.553064,-160.237035,False,3,11.5,0.20,70.315160,-160.164340,3,School of Fisheries and Ocean Sciences,,,,,,,,,
300234011887330,SFOS-MS-0020,10/6/2012 1:00:07 PM,70.553069,-160.237033,False,3,11.5,0.25,70.308300,-160.103700,2,School of Fisheries and Ocean Sciences,,,,,,,,,
300234011887330,SFOS-MS-0020,10/6/2012 12:30:08 PM,70.553072,-160.237080,False,3,11.5,0.85,70.315160,-160.164340,3,School of Fisheries and Ocean Sciences,,,,,,,,,
300234011887330,SFOS-MS-0020,10/6/2012 12:00:37 PM,70.553086,-160.237052,False,3,11.5,0.95,70.308300,-160.103700,6,School of Fisheries and Ocean Sciences,,,,,,,,,
300234011887330,SFOS-MS-0020,10/6/2012 11:30:08 AM,70.552972,-160.237008,False,3,11.5,1.05,70.315160,-160.164340,3,School of Fisheries and Ocean Sciences,,,,,,,,,
300234011887330,SFOS-MS-0020,10/6/2012 11:00:08 AM,70.552892,-160.237008,False,3,11.5,1.25,70.315160,-160.164340,4,School of Fisheries and Ocean Sciences,,,,,,,,,
300234011887330,SFOS-MS-0020,10/6/2012 10:30:09 AM,70.552947,-160.237085,False,3,11.5,1.20,70.315160,-160.164340,5,School of Fisheries and Ocean Sciences,,,,,,,,,
300234011887330,SFOS-MS-0020,10/6/2012 10:00:07 AM,70.553086,-160.237094,False,3,11.5,1.10,70.360200,-160.181570,14,School of Fisheries and Ocean Sciences,,,,,,,,,
300234011887330,SFOS-MS-0020,10/6/2012 9:30:07 AM,70.553086,-160.237074,False,3,11.5,0.65,70.335540,-160.346720,172,School of Fisheries and Ocean Sciences,,,,,,,,,
300234011887330,SFOS-MS-0020,10/6/2012 9:00:07 AM,70.553094,-160.237041,False,3,11.5,0.50,70.315160,-160.164340,3,School of Fisheries and Ocean Sciences,,,,,,,,,
300234011887330,SFOS-MS-0020,10/6/2012 8:30:05 AM,70.553097,-160.237085,False,3,11.5,0.55,70.334250,-160.142540,5,School of Fisheries and Ocean Sciences,,,,,,,,,
300234011887330,SFOS-MS-0020,10/6/2012 8:00:37 AM,70.553094,-160.237060,False,3,11.5,0.75,70.315160,-160.164340,7,School of Fisheries and Ocean Sciences,,,,,,,,,
300234011887330,SFOS-MS-0020,10/6/2012 7:30:09 AM,70.553097,-160.237030,False,3,11.5,1.00,70.430590,-163.245300,131,School of Fisheries and Ocean Sciences,,,,,,,,,
300234011887330,SFOS-MS-0020,10/6/2012 7:00:09 AM,70.553108,-160.237049,False,3,11.5,1.35,70.161770,-154.316510,234,School of Fisheries and Ocean Sciences,,,,,,,,,
300234011887330,SFOS-MS-0020,10/6/2012 6:30:08 AM,70.553064,-160.236991,False,3,11.5,1.50,70.315160,-160.164340,6,School of Fisheries and Ocean Sciences,,,,,,,,,